1483603200.5,59348,6.94,71434.8,-17.47,-25.29,-24.15,0,*68
1483603201.75,59349,6.94,71422.8,-17.47,-25.87,-24.71,0,*6F
1483603203.01,59350,6.94,71452.0,-17.49,-25.29,-23.85,0,*61
1483603204.28,59351,6.94,71432.3,-17.49,-24.15,-23.33,0,*63
1483603205.56,59352,6.94,71452.5,-17.51,-24.87,-23.69,0,*6D
1483603206.84,59353,6.94,71452.5,-17.51,-24.51,-23.23,0,*69
1483603208.12,59354,6.94,71440.0,-17.51,-23.19,-21.93,0,*6C
1483603209.35,59355,6.94,71434.3,-17.51,-22.07,-21.13,0,*6B
1483603210.63,59356,6.94,71442.0,-17.51,-20.99,-20.39,0,*64
1483603211.88,59357,6.94,71428.8,-17.53,-21.53,-21.39,0,*61
1483603213.11,59358,6.94,71420.3,-17.53,-21.73,-21.53,0,*60
1483603214.32,59359,6.94,71398.5,-17.53,-21.39,-21.09,0,*60
1483603215.56,59360,6.94,71416.5,-17.53,-21.53,-21.09,0,*66
1483603216.78,59361,6.94,71378.3,-17.53,-21.39,-20.73,0,*67
1483603218.05,59362,6.94,71424.5,-17.53,-21.53,-21.03,0,*6E
1483603219.28,59363,6.94,71458.3,-17.53,-21.67,-21.09,0,*62
1483603220.56,59364,6.94,71452.5,-17.51,-21.93,-20.53,0,*62
1483603221.8,59365,6.94,71456.5,-17.49,-20.73,-19.61,0,*6E
1483603223.04,59366,6.94,71442.5,-17.49,-19.61,-18.99,0,*62
1483603224.26,59367,6.94,71424.8,-17.47,-19.17,-18.69,0,*63
1483603225.52,59368,6.94,71424.0,-17.47,-18.89,-18.55,0,*65
1483603226.79,59369,6.94,71430.3,-17.45,-18.65,-18.35,0,*62
1483603228.03,59370,6.94,71428.3,-17.43,-18.73,-18.59,0,*61
1483603229.3,59371,6.94,71430.3,-17.39,-19.57,-19.31,0,*65
1483603230.55,59372,6.94,71426.5,-17.39,-19.81,-19.41,0,*6A
1483603231.81,59373,6.94,71436.0,-17.39,-19.81,-19.41,0,*6B
1483603233.08,59374,6.94,71434.8,-17.39,-19.23,-18.93,0,*6A
1483603234.3,59375,6.94,71432.5,-17.39,-19.37,-19.17,0,*63
1483603235.57,59376,6.94,71424.5,-17.37,-19.17,-18.93,0,*61
1483603236.8,59377,6.94,71428.5,-17.35,-18.73,-18.59,0,*67
1483603238.05,59378,6.94,71430.0,-17.35,-18.89,-18.59,0,*6D
1483603239.26,59379,6.94,71452.0,-17.35,-19.03,-18.83,0,*68
1483603240.5,59380,6.94,71434.5,-17.35,-19.91,-19.61,0,*68
1483603241.77,59381,6.94,71422.3,-17.33,-19.61,-19.47,0,*64
1483603242.98,59382,6.94,71424.5,-17.35,-19.47,-19.47,0,*65
1483603244.23,59383,6.94,71464.8,-17.35,-19.27,-19.03,0,*62
1483603245.47,59384,6.94,71418.5,-17.35,-19.51,-19.61,0,*60
1483603246.69,59385,6.94,71390.0,-17.35,-19.95,-19.91,0,*66
1483603247.93,59386,6.94,71430.5,-17.31,-19.91,-19.85,0,*60
1483603249.18,59387,6.94,71450.8,-17.33,-19.81,-19.91,0,*67
1483603250.43,59388,6.94,71448.0,-17.33,-20.39,-20.39,0,*69
1483603251.67,59389,6.94,71442.8,-17.33,-21.47,-21.47,0,*68
1483603252.91,59390,6.94,71448.5,-17.33,-21.93,-21.77,0,*6A
1483603254.15,59391,6.94,71446.3,-17.33,-21.77,-21.17,0,*67
1483603255.42,59392,6.94,71440.5,-17.37,-21.67,-21.09,0,*6E
1483603256.71,59393,6.94,71444.3,-17.37,-21.67,-21.03,0,*65
1483603257.93,59394,6.94,71432.8,-17.35,-21.17,-20.43,0,*62
1483603259.15,59395,6.94,71436.3,-17.35,-20.73,-20.25,0,*60
1483603260.41,59396,6.94,71436.3,-17.37,-20.79,-20.43,0,*6B
1483603261.66,59397,6.94,71426.0,-17.35,-20.83,-20.25,0,*6D
1483603262.93,59398,6.94,71438.5,-17.33,-21.13,-20.53,0,*6D
1483603264.17,59399,6.94,71434.0,-17.33,-21.13,-20.69,0,*65
1483603265.44,59400,6.94,71434.5,-17.33,-21.27,-20.73,0,*6E
1483603266.66,59401,6.94,71416.8,-17.31,-20.93,-20.39,0,*6D
1483603267.92,59402,6.94,71426.5,-17.31,-21.33,-20.83,0,*64
1483603269.17,59403,6.94,71418.3,-17.31,-21.23,-20.63,0,*6A
1483603270.44,59404,6.94,71414.0,-17.33,-21.39,-20.83,0,*6A
1483603271.65,59405,6.94,71414.3,-17.27,-21.39,-20.73,0,*61
1483603272.93,59406,6.94,71424.5,-17.29,-21.27,-20.63,0,*62
1483603274.15,59407,6.94,71422.5,-17.27,-21.17,-20.43,0,*6C
1483603275.42,59408,6.94,71424.5,-17.25,-21.03,-20.29,0,*68
1483603276.66,59409,6.94,71408.3,-17.29,-20.63,-19.99,0,*63
1483603277.9,59410,6.94,71422.5,-17.27,-20.09,-19.57,0,*6B
1483603279.15,59411,6.94,71418.3,-17.27,-19.71,-19.23,0,*6C
1483603280.39,59412,6.94,71440.8,-17.27,-19.65,-19.37,0,*6F
1483603281.63,59413,6.94,71438.3,-17.25,-19.95,-19.71,0,*61
1483603282.89,59414,6.94,71438.0,-17.25,-20.19,-20.09,0,*6D
1483603284.16,59415,6.94,71438.8,-17.25,-20.49,-20.43,0,*67
1483603285.43,59416,6.94,71436.8,-17.25,-20.79,-20.59,0,*6C
1483603286.7,59417,6.94,71428.8,-17.25,-20.49,-20.43,0,*65
1483603287.96,59418,6.94,71452.5,-17.25,-20.19,-20.09,0,*61
1483603289.23,59419,6.94,71460.8,-17.25,-20.89,-20.79,0,*6E
1483603290.46,59420,6.94,71446.5,-17.23,-21.27,-21.09,0,*61
1483603291.72,59421,6.94,71444.5,-17.25,-21.57,-21.09,0,*61
1483603292.99,59422,6.94,71446.3,-17.25,-21.23,-20.63,0,*6C
1483603294.21,59423,6.94,71446.3,-17.23,-21.09,-20.59,0,*6A
1483603295.47,59424,6.94,71448.8,-17.23,-20.79,-20.15,0,*63
1483603296.69,59425,6.94,71442.5,-17.23,-20.89,-20.43,0,*6E
1483603297.91,59426,6.94,71440.5,-17.23,-21.39,-20.89,0,*61
1483603299.14,59427,6.94,71448.3,-17.23,-20.43,-19.95,0,*6B
1483603300.39,59428,6.94,71456.0,-17.25,-20.09,-19.41,0,*65
1483603301.63,59429,6.94,71414.8,-17.23,-20.63,-20.15,0,*65
1483603302.84,59430,6.94,71446.0,-17.23,-20.29,-19.95,0,*61
1483603304.08,59431,6.94,71430.0,-17.21,-20.69,-20.25,0,*67
1483603305.34,59432,6.94,71434.5,-17.21,-20.53,-20.05,0,*6F
1483603306.58,59433,6.94,71430.8,-17.21,-20.09,-19.75,0,*6C
1483603307.84,59434,6.94,71426.0,-17.21,-19.95,-19.65,0,*65
1483603309.08,59435,6.94,71418.0,-17.17,-19.99,-19.71,0,*68
1483603310.32,59436,6.94,71426.0,-17.17,-20.05,-19.75,0,*60
1483603311.56,59437,6.94,71414.3,-17.17,-19.91,-19.47,0,*67
1483603312.8,59438,6.94,71438.0,-17.17,-19.99,-19.75,0,*61
1483603314.04,59439,6.94,71450.3,-17.13,-20.19,-19.91,0,*6C
1483603315.29,59440,6.94,71434.8,-17.13,-21.17,-20.99,0,*6F
1483603316.51,59441,6.94,71412.3,-17.13,-21.77,-21.63,0,*6C
1483603317.77,59442,6.94,71390.3,-17.21,-21.13,-20.83,0,*63
1483603319.04,59443,6.94,71430.5,-17.21,-20.53,-20.29,0,*67
1483603320.29,59444,6.94,71434.8,-17.21,-20.59,-20.39,0,*6B
1483603321.55,59445,6.94,71434.3,-17.21,-21.77,-21.83,0,*67
1483603322.84,59446,6.94,71440.3,-17.21,-22.17,-21.97,0,*64
1483603324.05,59447,6.94,71446.5,-17.23,-22.03,-22.03,0,*6C
1483603325.29,59448,6.94,71448.8,-17.23,-22.03,-21.87,0,*6C
1483603326.56,59449,6.94,71426.3,-17.23,-22.21,-21.87,0,*6D
1483603327.83,59450,6.94,71424.8,-17.25,-22.37,-21.97,0,*65
1483603329.11,59451,6.94,71420.5,-17.25,-22.21,-21.57,0,*6F
1483603330.37,59452,6.94,71438.3,-17.23,-22.21,-21.57,0,*6A
1483603331.64,59453,6.94,71448.0,-17.21,-22.47,-21.77,0,*6B
1483603332.91,59454,6.94,71454.3,-17.21,-22.47,-21.39,0,*66
1483603334.14,59455,6.94,71446.3,-17.21,-21.63,-20.69,0,*66
1483603335.39,59456,6.94,71442.0,-17.17,-21.09,-20.63,0,*66
1483603336.66,59457,6.94,71450.8,-17.21,-21.53,-21.47,0,*6A
1483603337.9,59458,6.94,71454.5,-17.13,-21.87,-21.73,0,*6A
1483603339.14,59459,6.94,71454.0,-17.13,-22.07,-21.87,0,*6B
1483603340.39,59460,6.94,71442.8,-17.13,-23.79,-23.23,0,*65
1483603341.64,59461,6.94,71448.8,-17.13,-24.47,-23.65,0,*6C
1483603342.91,59462,6.94,71456.5,-17.13,-23.85,-23.03,0,*66
1483603344.16,59463,6.94,71458.5,-17.13,-23.95,-22.97,0,*6A
1483603345.43,59464,6.94,71444.3,-17.13,-23.69,-23.03,0,*62
1483603346.69,59465,6.94,71454.8,-17.13,-24.15,-23.53,0,*6A
1483603347.96,59466,6.94,71458.3,-17.13,-24.67,-23.65,0,*69
1483603349.21,59467,6.94,71462.3,-17.13,-24.35,-23.23,0,*6D
1483603350.45,59468,6.94,71462.5,-17.13,-23.69,-22.87,0,*63
1483603351.69,59469,6.94,71458.0,-17.11,-23.13,-22.37,0,*66
1483603352.96,59470,6.94,71448.3,-17.11,-23.59,-22.77,0,*64
1483603354.23,59471,6.94,71442.3,-17.11,-23.79,-23.19,0,*6E
1483603355.5,59472,6.94,71450.0,-17.11,-23.89,-23.19,0,*62
1483603356.77,59473,6.94,71462.0,-17.11,-24.57,-23.95,0,*63
1483603358.06,59474,6.94,71452.8,-17.11,-25.03,-24.41,0,*6A
1483603359.32,59475,6.94,71442.3,-17.11,-25.45,-24.61,0,*6B
1483603360.56,59476,6.94,71430.8,-17.13,-24.61,-23.95,0,*61
1483603361.78,59477,6.94,71412.5,-17.13,-22.97,-22.41,0,*67
1483603363.05,59478,6.94,71450.0,-17.13,-22.21,-22.21,0,*63
1483603364.29,59479,6.94,71448.0,-17.13,-22.97,-22.73,0,*68
1483603365.54,59480,6.94,71420.3,-17.13,-23.75,-23.19,0,*6E
1483603366.79,59481,6.94,71452.8,-17.11,-23.43,-23.13,0,*62
1483603368.05,59482,6.94,71440.0,-17.11,-24.93,-24.25,0,*69
1483603369.33,59483,6.94,71442.5,-17.11,-24.71,-23.89,0,*65
1483603370.59,59484,6.94,71448.8,-17.13,-24.67,-23.53,0,*60
1483603371.84,59485,6.94,71446.3,-17.11,-24.05,-22.53,0,*66
1483603373.11,59486,6.94,71458.8,-17.11,-23.19,-22.37,0,*6D
1483603374.38,59487,6.94,71452.5,-17.11,-23.59,-22.31,0,*6E
1483603375.65,59488,6.94,71456.3,-17.11,-22.93,-21.83,0,*6C
1483603376.92,59489,7.0,71454.0,-17.11,-22.67,-21.67,0,*6C
1483603378.2,59490,6.94,71458.3,-17.09,-21.83,-20.49,0,*69
1483603379.45,59491,6.94,71442.8,-17.09,-20.63,-19.65,0,*63
1483603380.72,59492,6.94,71442.0,-17.07,-19.31,-18.73,0,*65
1483603381.97,59493,6.94,71450.0,-17.07,-18.99,-18.45,0,*62
1483603383.21,59494,6.94,71458.5,-17.05,-18.59,-18.17,0,*6C
1483603384.45,59495,6.94,71472.5,-17.05,-18.55,-18.17,0,*61
1483603385.69,59496,6.94,71468.5,-17.03,-18.79,-18.49,0,*61
1483603386.94,59497,6.94,71464.3,-17.03,-18.83,-18.65,0,*6B
1483603388.19,59498,6.94,71462.8,-16.99,-18.79,-18.73,0,*64
1483603389.41,59499,6.94,71458.8,-17.01,-18.69,-18.49,0,*6D
1483603390.68,59500,6.94,71446.8,-16.99,-18.89,-18.83,0,*64
1483603391.95,59501,6.94,71474.3,-16.99,-18.99,-18.93,0,*65
1483603393.24,59502,6.94,71458.0,-16.99,-19.51,-19.57,0,*6A
1483603394.5,59503,6.94,71472.3,-16.99,-19.81,-19.71,0,*62
1483603395.78,59504,6.94,71474.0,-17.01,-19.65,-19.57,0,*6B
1483603397.06,59505,6.94,71476.5,-16.99,-19.51,-19.57,0,*6D
1483603398.31,59506,6.94,71464.8,-16.99,-19.99,-19.99,0,*68
1483603399.55,59507,6.94,71480.3,-16.97,-20.15,-19.91,0,*61
1483603400.79,59508,6.94,71468.8,-16.97,-20.73,-20.79,0,*62
1483603402.04,59509,6.94,71470.8,-17.01,-21.93,-21.87,0,*62
1483603403.29,59510,6.94,71460.0,-17.01,-21.57,-21.17,0,*6B
1483603404.53,59511,6.94,71450.5,-17.01,-22.37,-22.21,0,*69
1483603405.74,59512,6.94,71448.3,-17.01,-22.83,-22.41,0,*63
1483603407.01,59513,6.94,71452.5,-17.03,-23.19,-22.87,0,*68
1483603408.26,59514,6.94,71438.0,-17.03,-23.09,-22.67,0,*60
1483603409.51,59515,6.94,71432.5,-17.05,-22.93,-22.77,0,*64
1483603410.77,59516,6.94,71440.3,-17.05,-22.73,-22.73,0,*6D
1483603412.02,59517,6.94,71440.5,-17.05,-23.99,-23.75,0,*6E
1483603413.27,59518,6.94,71432.0,-17.07,-24.51,-24.35,0,*63
1483603414.52,59519,6.94,71436.0,-17.09,-23.65,-23.43,0,*6A
1483603415.77,59520,7.0,71432.8,-17.11,-24.05,-23.75,0,*6D
1483603416.99,59521,6.94,71438.0,-17.09,-23.79,-23.43,0,*6C
1483603418.26,59522,6.94,71442.5,-17.11,-23.49,-22.83,0,*68
1483603419.54,59523,6.94,71446.3,-17.11,-21.87,-20.89,0,*61
1483603420.84,59524,6.94,71440.8,-17.11,-21.53,-20.79,0,*60
1483603422.09,59525,6.94,71440.5,-17.11,-21.39,-20.89,0,*62
1483603423.32,59526,6.94,71438.3,-17.13,-20.69,-20.39,0,*6C
1483603424.59,59527,6.94,71444.5,-17.11,-19.95,-19.65,0,*65
1483603425.84,59528,6.94,71454.0,-17.09,-19.95,-19.57,0,*62
1483603427.07,59529,6.94,71452.0,-17.09,-20.93,-20.73,0,*63
1483603428.3,59530,7.0,71458.8,-17.09,-20.35,-19.99,0,*69
1483603429.56,59531,6.94,71460.5,-17.07,-19.81,-19.51,0,*67
1483603430.81,59532,6.94,71462.8,-17.07,-19.95,-19.75,0,*67
1483603432.11,59533,6.94,71444.0,-17.07,-21.33,-21.23,0,*69
1483603433.36,59534,6.94,71450.8,-17.09,-21.73,-21.67,0,*64
1483603434.61,59535,6.94,71444.0,-17.09,-21.27,-21.13,0,*67
1483603435.85,59536,6.94,71452.0,-17.09,-22.03,-22.17,0,*66
1483603437.14,59537,6.94,71444.0,-17.11,-23.19,-23.29,0,*68
1483603438.41,59538,6.94,71436.8,-17.11,-23.29,-23.59,0,*63
1483603439.64,59539,6.94,71448.3,-17.13,-23.39,-23.53,0,*6B
1483603440.9,59540,7.0,71452.0,-17.13,-24.31,-24.21,0,*68
1483603442.16,59541,6.94,71420.8,-17.13,-23.95,-23.95,0,*68
1483603443.44,59542,6.94,71436.5,-17.17,-23.19,-23.09,0,*6E
1483603444.7,59543,6.94,71440.8,-17.17,-23.33,-23.39,0,*64
1483603445.97,59544,6.94,71444.8,-17.17,-24.83,-24.47,0,*61
1483603447.23,59545,6.94,71422.0,-17.21,-25.35,-24.87,0,*65
1483603448.49,59546,6.94,71446.0,-17.21,-24.87,-24.51,0,*65
1483603449.77,59547,7.0,71442.5,-17.21,-24.87,-24.67,0,*61
1483603451.03,59548,6.94,71438.5,-17.25,-25.09,-24.41,0,*69
1483603452.26,59549,7.0,71460.5,-17.23,-24.57,-23.95,0,*6A
1483603453.53,59550,6.94,71428.5,-17.23,-25.71,-25.03,0,*6E
1483603454.8,59551,6.94,71418.0,-17.25,-24.11,-23.43,0,*6C
1483603456.05,59552,6.94,71432.8,-17.23,-23.09,-22.47,0,*62
1483603457.33,59553,6.94,71438.5,-17.25,-22.93,-22.47,0,*67
1483603458.59,59554,6.94,71426.8,-17.25,-23.29,-22.67,0,*62
1483603459.86,59555,6.94,71426.8,-17.25,-22.83,-22.31,0,*61
1483603461.15,59556,6.94,71418.0,-17.25,-22.21,-22.17,0,*6E
1483603462.41,59557,6.94,71428.5,-17.23,-22.21,-22.21,0,*6C
1483603463.65,59558,7.0,71440.3,-17.23,-22.37,-22.21,0,*64
1483603464.89,59559,6.94,71444.8,-17.23,-23.29,-22.97,0,*66
1483603466.13,59560,6.94,71426.8,-17.23,-24.57,-23.95,0,*61
1483603467.37,59561,6.94,71418.5,-17.23,-23.49,-22.83,0,*6E
1483603468.59,59562,6.94,71432.5,-17.23,-23.09,-22.67,0,*63
1483603469.83,59563,6.94,71420.8,-17.23,-23.43,-22.77,0,*6D
1483603471.05,59564,6.94,71426.8,-17.23,-22.83,-22.03,0,*64
1483603472.28,59565,6.94,71434.3,-17.23,-21.57,-21.09,0,*66
1483603473.57,59566,6.94,71436.8,-17.21,-21.23,-20.99,0,*6C
1483603474.84,59567,6.94,71438.8,-17.17,-21.17,-20.99,0,*6F
1483603476.09,59568,6.94,71438.3,-17.13,-21.87,-21.73,0,*68
1483603477.31,59569,6.94,71444.8,-17.13,-22.11,-21.93,0,*6B
1483603478.55,59570,6.94,71398.0,-17.17,-22.97,-22.57,0,*62
1483603479.8,59571,6.94,71408.3,-17.17,-22.53,-21.93,0,*60
1483603481.04,59572,6.94,71442.5,-17.17,-22.37,-21.63,0,*6E
1483603482.31,59573,6.94,71428.0,-17.17,-21.93,-20.99,0,*66
1483603483.61,59574,7.0,71408.0,-17.17,-21.33,-20.49,0,*66
1483603484.87,59575,7.0,71422.0,-17.13,-20.19,-19.61,0,*6A
1483603486.14,59576,6.94,71412.5,-17.17,-19.85,-19.17,0,*63
1483603487.37,59577,6.94,71404.5,-17.13,-19.41,-19.07,0,*6F
1483603488.65,59578,6.94,71404.0,-17.11,-19.13,-18.93,0,*69
1483603489.89,59579,6.94,71416.0,-17.11,-19.13,-19.03,0,*60
1483603491.14,59580,6.94,71426.3,-17.07,-19.91,-19.91,0,*60
1483603492.36,59581,6.94,71438.0,-17.09,-19.99,-19.99,0,*6F
1483603493.62,59582,7.0,71424.8,-17.07,-19.81,-19.91,0,*63
1483603494.86,59583,7.0,71426.8,-17.07,-20.09,-20.09,0,*63
1483603496.11,59584,7.0,71412.0,-17.07,-21.09,-21.17,0,*6B
1483603497.38,59585,6.94,71408.3,-17.09,-20.49,-20.49,0,*6B
1483603498.65,59586,6.94,71410.0,-17.07,-20.53,-20.69,0,*6F
1483603499.9,59587,7.0,71418.3,-17.09,-20.79,-20.89,0,*66
1483603501.18,59588,6.94,71450.3,-17.07,-20.69,-20.83,0,*6C
1483603502.47,59589,6.94,71414.3,-17.07,-21.33,-21.53,0,*6F
1483603503.77,59590,7.0,71392.3,-17.07,-21.83,-21.83,0,*61
1483603505.04,59591,6.94,71392.5,-17.07,-21.67,-21.47,0,*62
1483603506.31,59592,6.94,71390.3,-17.07,-21.77,-21.33,0,*63
1483603507.58,59593,6.94,71418.0,-17.07,-21.09,-21.03,0,*68
1483603508.85,59594,7.0,71414.3,-17.07,-21.39,-21.33,0,*6F
1483603510.1,59595,6.94,71420.3,-17.09,-21.09,-21.23,0,*62
1483603511.38,59596,6.94,71418.8,-17.07,-21.53,-21.77,0,*61
1483603512.68,59597,7.0,71420.8,-17.07,-22.17,-22.17,0,*66
1483603513.95,59598,6.94,71396.5,-17.07,-21.83,-21.93,0,*68
1483603515.23,59599,7.0,71410.0,-17.07,-22.17,-22.03,0,*6D
1483603516.53,59600,6.94,71412.3,-17.07,-22.17,-21.97,0,*60
1483603517.8,59601,7.0,71406.8,-17.07,-22.11,-21.83,0,*62
1483603519.1,59602,6.94,71406.3,-17.07,-22.17,-21.83,0,*67
1483603520.4,59603,7.0,71416.3,-17.03,-21.57,-21.27,0,*6B
1483603521.67,59604,6.94,71418.5,-17.03,-21.77,-21.57,0,*69
1483603522.92,59605,6.94,71418.0,-17.03,-21.73,-21.17,0,*68
1483603524.16,59606,7.0,71410.3,-17.03,-21.63,-21.13,0,*6E
1483603525.43,59607,6.94,71402.8,-17.03,-21.47,-20.99,0,*6A
1483603526.7,59608,6.94,71418.5,-17.01,-21.57,-20.83,0,*6D
1483603527.97,59609,7.0,71410.5,-17.01,-21.33,-20.79,0,*6B
1483603529.19,59610,7.0,71422.3,-17.01,-21.13,-20.69,0,*60
1483603530.44,59611,6.94,71412.0,-17.01,-20.83,-20.63,0,*63
1483603531.71,59612,6.94,71420.3,-16.99,-20.49,-20.29,0,*68
1483603532.99,59613,7.0,71424.8,-16.99,-20.59,-20.19,0,*6B
1483603534.26,59614,7.0,71426.3,-16.99,-20.73,-20.35,0,*6A
1483603535.51,59615,6.94,71424.3,-16.97,-21.43,-21.27,0,*65
1483603536.73,59616,6.94,71446.5,-16.97,-21.93,-21.93,0,*64
1483603537.97,59617,7.0,71440.5,-16.97,-22.31,-21.73,0,*60
1483603539.22,59618,7.0,71424.5,-16.97,-22.53,-21.67,0,*6E
1483603540.48,59619,6.94,71422.8,-16.97,-21.93,-21.23,0,*60
1483603541.73,59620,7.0,71420.8,-16.97,-21.73,-20.99,0,*64
1483603542.95,59621,7.0,71414.8,-16.97,-21.73,-21.13,0,*66
1483603544.19,59622,7.0,71438.3,-16.95,-21.39,-20.73,0,*6E
1483603545.46,59623,6.94,71442.8,-16.95,-21.83,-21.13,0,*69
1483603546.76,59624,7.0,71432.8,-16.91,-22.47,-21.83,0,*68
1483603548.04,59625,6.94,71436.0,-16.91,-21.83,-21.17,0,*6F
1483603549.34,59626,7.0,71446.5,-16.95,-22.31,-21.67,0,*65
1483603550.58,59627,7.0,71436.3,-16.95,-22.83,-22.07,0,*68
1483603551.85,59628,7.0,71434.8,-16.95,-23.65,-22.87,0,*66
1483603553.08,59629,7.0,71438.8,-16.97,-23.43,-22.63,0,*6B
1483603554.32,59630,7.0,71440.8,-16.97,-22.87,-22.17,0,*69
1483603555.54,59631,6.94,71430.0,-17.01,-22.57,-22.07,0,*6A
1483603556.78,59632,6.94,71450.3,-17.01,-21.63,-21.33,0,*69
1483603558.0,59633,7.0,71432.5,-17.01,-22.67,-22.41,0,*69
1483603559.23,59634,7.0,71436.3,-17.01,-21.63,-21.57,0,*6D
1483603560.48,59635,7.0,71408.8,-17.03,-21.47,-21.47,0,*69
1483603561.75,59636,6.94,71384.5,-17.03,-22.07,-21.87,0,*61
1483603562.96,59637,6.94,71394.5,-17.01,-22.41,-22.41,0,*69
1483603564.18,59638,7.0,71454.3,-17.01,-22.57,-22.41,0,*61
1483603565.43,59639,7.0,71446.5,-17.01,-24.47,-23.85,0,*6E
1483603566.7,59640,7.0,71462.3,-17.03,-23.65,-22.83,0,*62
1483603567.95,59641,6.94,71462.5,-17.03,-23.79,-22.93,0,*6F
1483603569.21,59642,7.0,71456.8,-17.01,-24.15,-23.53,0,*6E
1483603570.44,59643,6.94,71430.3,-17.01,-24.51,-23.79,0,*67
1483603571.73,59644,7.0,71410.3,-17.03,-23.99,-23.49,0,*62
1483603572.98,59645,6.94,71460.8,-17.03,-22.83,-22.27,0,*60
1483603574.22,59646,7.0,71444.5,-17.01,-24.05,-23.53,0,*6B
1483603575.47,59647,7.0,71472.5,-17.01,-23.53,-22.87,0,*66
1483603576.71,59648,7.0,71434.8,-17.03,-23.39,-22.83,0,*63
1483603577.92,59649,6.94,71398.8,-17.05,-23.39,-22.87,0,*60
1483603579.19,59650,7.0,71390.5,-17.03,-22.41,-21.87,0,*63
1483603580.41,59651,7.0,71378.8,-17.05,-21.93,-21.63,0,*62
1483603581.66,59652,7.0,71416.8,-17.03,-21.93,-21.77,0,*62
1483603582.96,59653,7.0,71444.5,-17.03,-21.97,-21.87,0,*68
1483603584.2,59654,7.0,71452.8,-17.03,-22.27,-22.27,0,*6E
1483603585.45,59655,7.0,71458.3,-17.03,-22.37,-22.11,0,*6B
1483603586.7,59656,7.0,71466.3,-17.05,-22.97,-22.77,0,*64
1483603587.95,59657,7.0,71466.5,-17.05,-23.09,-22.77,0,*63
1483603589.16,59658,7.0,71470.3,-17.01,-22.87,-22.57,0,*6D
1483603590.43,59659,6.94,71450.8,-17.01,-23.23,-22.73,0,*65
1483603591.67,59660,7.0,71436.3,-17.01,-23.19,-22.41,0,*67
1483603592.94,59661,7.0,71466.8,-17.03,-23.03,-22.53,0,*6C
1483603594.22,59662,7.0,71440.3,-16.99,-23.89,-23.19,0,*60
1483603595.46,59663,7.0,71456.0,-17.01,-23.65,-22.93,0,*60
1483603596.76,59664,7.0,71454.3,-16.99,-23.95,-23.33,0,*63
1483603598.01,59665,7.0,71456.3,-16.99,-23.89,-23.13,0,*6D
1483603599.31,59666,7.0,71456.5,-16.99,-23.65,-22.77,0,*6F
1483603600.56,59667,7.0,71464.8,-16.97,-23.13,-22.17,0,*67
1483603601.83,59668,7.0,71464.0,-16.97,-23.49,-23.03,0,*63
1483603603.07,59669,7.0,71466.5,-16.97,-23.99,-23.59,0,*60
1483603604.34,59670,7.0,71456.0,-16.97,-25.29,-23.99,0,*69
1483603605.55,59671,7.0,71428.3,-16.97,-25.09,-23.79,0,*64
1483603606.82,59672,6.94,71406.0,-16.97,-24.25,-23.29,0,*6D
1483603608.08,59673,7.0,71412.3,-16.97,-23.43,-22.77,0,*61
1483603609.35,59674,7.0,71450.3,-16.95,-23.19,-22.63,0,*6E
1483603610.62,59675,6.94,71422.0,-16.97,-24.41,-23.65,0,*60
1483603611.88,59676,7.0,71378.3,-16.97,-24.71,-23.75,0,*61
1483603613.15,59677,6.94,71466.0,-16.99,-23.13,-22.21,0,*6D
1483603614.39,59678,7.0,71436.0,-16.97,-23.49,-22.87,0,*6F
1483603615.66,59679,7.0,71436.8,-16.99,-23.19,-22.37,0,*6E
1483603616.91,59680,7.0,71430.0,-16.99,-22.67,-22.03,0,*67
1483603618.19,59681,7.0,71414.3,-16.97,-23.03,-22.47,0,*6B
1483603619.43,59682,7.0,71412.5,-16.95,-22.67,-22.03,0,*69
1483603620.65,59683,6.94,71422.5,-16.97,-22.63,-22.07,0,*6A
1483603621.92,59684,7.0,71432.3,-16.97,-22.31,-21.67,0,*6F
1483603623.21,59685,7.0,71424.5,-16.95,-22.21,-21.57,0,*6E
1483603624.49,59686,7.0,71426.8,-16.91,-22.77,-22.27,0,*6E
1483603625.73,59687,7.0,71426.5,-16.95,-22.87,-22.37,0,*65
1483603626.98,59688,6.94,71430.3,-16.95,-23.13,-22.63,0,*67
1483603628.25,59689,7.0,71428.8,-16.95,-23.33,-22.83,0,*6A
1483603629.5,59690,7.0,71428.0,-16.95,-23.13,-22.63,0,*6E
1483603630.75,59691,7.0,71422.5,-16.95,-23.59,-22.97,0,*6A
1483603632.0,59692,7.0,71444.0,-16.95,-23.59,-22.97,0,*69
1483603633.27,59693,6.94,71446.3,-16.95,-23.33,-22.67,0,*6B
1483603634.52,59694,7.0,71464.3,-16.95,-24.31,-23.59,0,*65
1483603635.82,59695,7.0,71478.3,-16.95,-24.41,-23.49,0,*62
1483603637.09,59696,7.0,71420.0,-16.97,-24.15,-23.49,0,*62
1483603638.34,59697,6.94,71426.8,-16.99,-24.61,-23.75,0,*61
1483603639.56,59698,7.0,71446.0,-17.01,-24.77,-23.79,0,*65
1483603640.8,59699,7.0,71450.3,-17.01,-24.05,-23.03,0,*6C
1483603642.06,59700,7.0,71434.0,-17.01,-23.69,-22.73,0,*66
1483603643.34,59701,7.0,71474.0,-17.01,-21.87,-20.83,0,*68
1483603644.6,59702,6.94,71442.3,-17.01,-21.57,-20.79,0,*63
1483603645.88,59703,7.0,71420.5,-16.99,-22.03,-21.27,0,*6A
1483603647.15,59704,7.0,71388.3,-17.01,-21.57,-20.83,0,*60
1483603648.39,59705,7.0,71414.5,-16.99,-20.73,-20.05,0,*68
1483603649.68,59706,6.94,71464.3,-16.95,-20.35,-19.81,0,*63
1483603650.93,59707,7.0,71448.0,-16.97,-20.99,-20.63,0,*60
1483603652.2,59708,7.0,71466.8,-16.95,-20.93,-20.79,0,*6C
1483603653.51,59709,7.0,71464.8,-16.95,-21.67,-21.23,0,*69
1483603654.77,59710,7.0,71478.8,-16.95,-21.57,-21.09,0,*6A
1483603656.02,59711,7.0,71470.0,-16.97,-21.39,-20.99,0,*69
1483603657.29,59712,7.0,71474.5,-16.97,-21.67,-21.27,0,*65
1483603658.56,59713,7.0,71440.5,-16.95,-21.57,-21.09,0,*69
1483603659.81,59714,7.0,71412.3,-16.95,-20.89,-20.43,0,*63
1483603661.08,59715,6.94,71438.3,-16.97,-19.85,-19.27,0,*6E
1483603662.34,59716,7.0,71450.5,-16.95,-19.81,-19.51,0,*6A
1483603663.57,59717,7.0,71410.0,-16.97,-19.81,-19.51,0,*69
1483603664.81,59718,7.0,71400.8,-16.91,-19.47,-19.07,0,*69
1483603666.05,59719,7.0,71408.3,-16.89,-19.91,-19.61,0,*6A
1483603667.3,59720,7.0,71416.5,-16.89,-19.57,-19.17,0,*6B
1483603668.54,59721,7.0,71424.8,-16.89,-19.81,-19.47,0,*64
1483603669.79,59722,7.0,71404.0,-16.89,-20.83,-20.63,0,*63
1483603671.03,59723,7.0,71394.0,-16.89,-19.47,-19.27,0,*6A
1483603672.33,59724,7.0,71402.8,-16.87,-19.61,-19.31,0,*60
1483603673.6,59725,7.0,71412.5,-16.87,-19.57,-19.17,0,*60
1483603674.82,59726,7.0,71410.3,-16.85,-19.47,-19.17,0,*60
1483603676.08,59727,7.0,71400.0,-16.87,-20.05,-19.81,0,*60
1483603677.32,59728,7.0,71416.5,-16.85,-19.41,-19.13,0,*6C
1483603678.55,59729,7.0,71412.8,-16.85,-19.81,-19.71,0,*65
1483603679.8,59730,7.0,71422.5,-16.85,-19.71,-19.57,0,*66
1483603681.06,59731,7.0,71404.8,-16.81,-20.19,-20.05,0,*6A
1483603682.32,59732,7.0,71416.0,-16.83,-19.51,-19.27,0,*67
1483603683.57,59733,7.0,71418.0,-16.83,-19.13,-18.93,0,*6E
1483603684.82,59734,7.0,71398.0,-16.81,-19.13,-19.13,0,*62
1483603686.1,59735,7.0,71392.8,-16.81,-19.37,-19.27,0,*62
1483603687.37,59736,7.0,71408.3,-16.81,-19.57,-19.51,0,*66
1483603688.64,59737,7.0,71438.5,-16.81,-19.85,-19.71,0,*6A
1483603689.88,59738,7.0,71444.5,-16.79,-19.71,-19.61,0,*68
1483603691.13,59739,7.0,71438.0,-16.79,-19.99,-19.81,0,*61
1483603692.34,59740,7.0,71428.3,-16.79,-20.25,-19.95,0,*67
1483603693.61,59741,7.0,71410.5,-16.79,-20.15,-19.85,0,*64
1483603694.85,59742,7.0,71426.0,-16.79,-20.53,-20.25,0,*65
1483603696.08,59743,7.0,71414.5,-16.79,-20.89,-20.59,0,*68
1483603697.29,59744,7.0,71410.0,-16.79,-21.17,-21.09,0,*6D
1483603698.54,59745,7.0,71384.0,-16.79,-21.03,-20.59,0,*6D
1483603699.82,59746,7.0,71392.5,-16.81,-20.99,-20.63,0,*62
1483603701.07,59747,7.0,71402.0,-16.81,-20.59,-19.99,0,*60
1483603702.3,59748,7.0,71402.8,-16.81,-20.29,-19.71,0,*6E
1483603703.54,59749,7.0,71412.8,-16.79,-20.15,-19.71,0,*67